GIA88 WIII-EHAM

Flight info

Callsign GIA88
Flight time N/A
Altitude 30000
Route DOLTA A585 PLB G579 VJB A457 TEPUS Y506 VPG Y337 GIVAL P628 VATLA/N0512F320 P628 DUDIK W138 KKJ J1 MEMID L760 DPN J24 MUPID/N0497F340 J24 ASARI A466 SULOM T400 AKBER J121 INDEK L509 NONIB J139 HANGU L509 LAJAK DCT 3403N06952E 3425N06902E 3532N06818E DCT KHOLM M875 AMDAR/K0911F340 M875 INDUD Z777 MANAT/N0491F340 R226 AKRAM A477 BABUM A909 TUGTA B701 KRS B143 METKA L88 RASAM/N0490F360 N199 EDATA M11 REBLO UT165 KAR UW27 NIVLA UT309 ERZ UL615 SIV UL333 BAG UW75 DEREL UL602 MAKOL DCT DEGET DCT NORAH/N0485F380 DCT PATAK DCT KATQA DCT VARIK DCT KATCE DCT NORKU
Aircraft B77W/H-SDE1E2E3FGHIJ2J3J4J5M1RWXY/LB1D1

Departure

Time 2026-05-07 15:16
Airport Soekarno-Hatta International Airport (WIII)

Arrival

Time N/A
Airport Amsterdam Airport Schiphol (EHAM)
Time Latitude Longitude Altitude Speed Heading
2026-05-07 13:58 -6.11781 106.66384 43 ft 0 kts 158°
2026-05-07 15:05 -6.11779 106.66384 43 ft 2 kts 158°
2026-05-07 15:06 -6.11764 106.66378 43 ft 2 kts 158°
2026-05-07 15:06 -6.11749 106.66371 41 ft 2 kts 162°
2026-05-07 15:06 -6.11732 106.66368 41 ft 2 kts 177°
2026-05-07 15:06 -6.11716 106.66366 39 ft 2 kts 159°
2026-05-07 15:07 -6.11701 106.66359 37 ft 2 kts 140°
2026-05-07 15:07 -6.11692 106.66345 38 ft 2 kts 86°
2026-05-07 15:07 -6.11697 106.66329 38 ft 2 kts 68°
2026-05-07 15:07 -6.11699 106.66325 43 ft 0 kts 68°
2026-05-07 15:09 -6.11698 106.66326 43 ft 1 kts 68°
2026-05-07 15:09 -6.11686 106.66357 43 ft 10 kts 68°
2026-05-07 15:10 -6.11621 106.66400 43 ft 14 kts 350°
2026-05-07 15:10 -6.11531 106.66367 43 ft 14 kts 339°
2026-05-07 15:10 -6.11442 106.66332 43 ft 14 kts 339°
2026-05-07 15:10 -6.11360 106.66286 43 ft 14 kts 302°
2026-05-07 15:11 -6.11375 106.66194 43 ft 14 kts 248°
2026-05-07 15:11 -6.11410 106.66104 43 ft 14 kts 248°
2026-05-07 15:11 -6.11446 106.66012 43 ft 16 kts 248°
2026-05-07 15:11 -6.11492 106.65898 43 ft 18 kts 248°
2026-05-07 15:12 -6.11539 106.65779 43 ft 19 kts 248°
2026-05-07 15:12 -6.11588 106.65657 43 ft 19 kts 248°
2026-05-07 15:12 -6.11637 106.65535 43 ft 19 kts 248°
2026-05-07 15:12 -6.11686 106.65410 43 ft 20 kts 248°
2026-05-07 15:13 -6.11745 106.65263 43 ft 25 kts 248°
2026-05-07 15:13 -6.11810 106.65100 44 ft 25 kts 248°
2026-05-07 15:13 -6.11875 106.64937 44 ft 25 kts 248°
2026-05-07 15:13 -6.11940 106.64775 44 ft 25 kts 248°
2026-05-07 15:14 -6.12005 106.64611 44 ft 25 kts 248°
2026-05-07 15:14 -6.12070 106.64448 43 ft 25 kts 248°
2026-05-07 15:14 -6.12135 106.64284 44 ft 25 kts 248°
2026-05-07 15:14 -6.12200 106.64121 43 ft 25 kts 248°
2026-05-07 15:15 -6.12254 106.63956 44 ft 23 kts 277°
2026-05-07 15:15 -6.12166 106.63896 46 ft 17 kts 19°
2026-05-07 15:15 -6.12077 106.63951 45 ft 8 kts 53°
2026-05-07 15:15 -6.12050 106.64014 45 ft 19 kts 68°
2026-05-07 15:16 -6.11909 106.64366 44 ft 95 kts 68°
2026-05-07 15:16 -6.11569 106.65220 46 ft 168 kts 68°
2026-05-07 15:16 -6.11060 106.66485 240 ft 210 kts 68°
2026-05-07 15:16 -6.10523 106.67844 1048 ft 208 kts 69°
2026-05-07 15:17 -6.09737 106.69043 1834 ft 213 kts 40°
2026-05-07 15:17 -6.08385 106.69790 2234 ft 227 kts 29°
2026-05-07 15:17 -6.06945 106.70537 2540 ft 240 kts 31°
2026-05-07 15:17 -6.05453 106.71369 2724 ft 259 kts 32°
2026-05-07 15:18 -6.03871 106.72289 3179 ft 268 kts 33°
2026-05-07 15:18 -6.02247 106.73253 3696 ft 274 kts 33°
2026-05-07 15:18 -6.00594 106.74236 4295 ft 277 kts 30°
2026-05-07 15:18 -5.98736 106.74805 4773 ft 286 kts
2026-05-07 15:19 -5.96778 106.74409 5013 ft 295 kts 334°
2026-05-07 15:19 -5.95240 106.73073 5007 ft 296 kts 302°
2026-05-07 15:19 -5.94320 106.71217 5013 ft 300 kts 294°
2026-05-07 15:19 -5.93469 106.69330 5009 ft 300 kts 295°
2026-05-07 15:20 -5.92600 106.67420 5198 ft 299 kts 295°
2026-05-07 15:20 -5.91726 106.65518 5820 ft 302 kts 295°
2026-05-07 15:20 -5.90838 106.63595 6429 ft 305 kts 295°
2026-05-07 15:20 -5.89941 106.61660 7031 ft 306 kts 295°
2026-05-07 15:21 -5.89039 106.59720 7606 ft 308 kts 295°
2026-05-07 15:21 -5.88127 106.57764 8149 ft 311 kts 295°
2026-05-07 15:21 -5.87209 106.55793 8703 ft 313 kts 295°
2026-05-07 15:21 -5.86294 106.53831 9268 ft 315 kts 295°
2026-05-07 15:22 -5.85362 106.51831 9816 ft 318 kts 295°
2026-05-07 15:22 -5.84416 106.49803 10215 ft 326 kts 295°
2026-05-07 15:22 -5.83429 106.47686 10331 ft 344 kts 295°
2026-05-07 15:22 -5.82390 106.45460 10469 ft 361 kts 295°
2026-05-07 15:23 -5.81302 106.43119 10615 ft 378 kts 295°
2026-05-07 15:23 -5.80172 106.40683 10884 ft 390 kts 295°
2026-05-07 15:23 -5.79031 106.38223 11313 ft 397 kts 295°
2026-05-07 15:23 -5.77861 106.35701 11854 ft 400 kts 295°
2026-05-07 15:24 -5.76683 106.33163 12457 ft 402 kts 295°
2026-05-07 15:24 -5.75499 106.30613 13042 ft 404 kts 295°
2026-05-07 15:24 -5.74217 106.28104 13465 ft 405 kts 305°
2026-05-07 15:24 -5.72241 106.26080 13767 ft 410 kts 327°
2026-05-07 15:25 -5.69769 106.24678 14198 ft 409 kts 333°
2026-05-07 15:25 -5.67249 106.23305 14585 ft 414 kts 332°
2026-05-07 15:25 -5.64755 106.21922 15118 ft 415 kts 332°
2026-05-07 15:25 -5.62232 106.20511 15603 ft 417 kts 332°
2026-05-07 15:26 -5.59687 106.19080 16050 ft 421 kts 332°
2026-05-07 15:26 -5.57126 106.17636 16492 ft 424 kts 332°
2026-05-07 15:26 -5.54549 106.16182 16941 ft 427 kts 332°
2026-05-07 15:26 -5.51953 106.14716 17393 ft 429 kts 332°
2026-05-07 15:27 -5.49339 106.13239 17831 ft 432 kts 332°
2026-05-07 15:27 -5.46713 106.11756 18242 ft 435 kts 332°
2026-05-07 15:27 -5.44099 106.10281 18602 ft 438 kts 332°
2026-05-07 15:27 -5.41439 106.08779 19003 ft 440 kts 332°
2026-05-07 15:28 -5.38769 106.07273 19400 ft 441 kts 332°
2026-05-07 15:28 -5.36088 106.05760 19788 ft 443 kts 332°
2026-05-07 15:28 -5.33400 106.04243 20152 ft 445 kts 332°
2026-05-07 15:28 -5.30691 106.02714 20530 ft 447 kts 332°
2026-05-07 15:29 -5.27978 106.01182 20893 ft 449 kts 332°
2026-05-07 15:29 -5.25283 105.99661 21251 ft 451 kts 332°
2026-05-07 15:29 -5.22542 105.98113 21620 ft 453 kts 332°
2026-05-07 15:29 -5.19782 105.96555 21974 ft 455 kts 332°
2026-05-07 15:30 -5.17018 105.94995 22326 ft 457 kts 332°
2026-05-07 15:30 -5.14238 105.93426 22671 ft 460 kts 332°
2026-05-07 15:30 -5.11443 105.91848 22989 ft 462 kts 332°
2026-05-07 15:30 -5.08641 105.90256 23317 ft 464 kts 332°
2026-05-07 15:31 -5.05868 105.88675 23601 ft 466 kts 332°
2026-05-07 15:31 -5.03045 105.87064 23868 ft 468 kts 332°
2026-05-07 15:31 -5.00215 105.85448 24141 ft 470 kts 332°
2026-05-07 15:31 -4.97366 105.83822 24402 ft 471 kts 332°
2026-05-07 15:32 -4.94518 105.82198 24655 ft 473 kts 332°
2026-05-07 15:32 -4.91648 105.80561 24922 ft 475 kts 332°
2026-05-07 15:32 -4.88774 105.78923 25173 ft 476 kts 332°
2026-05-07 15:32 -4.85887 105.77278 25418 ft 478 kts 332°
2026-05-07 15:33 -4.82986 105.75625 25667 ft 480 kts 332°
2026-05-07 15:33 -4.80120 105.73993 25911 ft 482 kts 332°
2026-05-07 15:33 -4.77198 105.72328 26156 ft 483 kts 332°
2026-05-07 15:33 -4.74269 105.70660 26388 ft 485 kts 332°
2026-05-07 15:34 -4.71329 105.68985 26627 ft 487 kts 332°
2026-05-07 15:34 -4.68381 105.67307 26860 ft 489 kts 332°
2026-05-07 15:34 -4.65424 105.65623 27071 ft 490 kts 332°
2026-05-07 15:34 -4.62453 105.63931 27309 ft 492 kts 332°
2026-05-07 15:35 -4.59516 105.62259 27533 ft 493 kts 332°
2026-05-07 15:35 -4.56526 105.60557 27733 ft 495 kts 332°
2026-05-07 15:35 -4.53528 105.58850 27941 ft 496 kts 332°
2026-05-07 15:35 -4.50522 105.57139 28139 ft 498 kts 332°
2026-05-07 15:36 -4.47508 105.55424 28337 ft 499 kts 332°
2026-05-07 15:36 -4.44484 105.53703 28522 ft 501 kts 332°
2026-05-07 15:36 -4.41451 105.51977 28695 ft 502 kts 332°
2026-05-07 15:36 -4.38449 105.50269 28868 ft 503 kts 332°
2026-05-07 15:37 -4.35402 105.48536 29045 ft 505 kts 332°
2026-05-07 15:37 -4.32344 105.46797 29206 ft 506 kts 332°
2026-05-07 15:37 -4.29279 105.45053 29372 ft 507 kts 332°
2026-05-07 15:37 -4.26213 105.43309 29511 ft 508 kts 332°
2026-05-07 15:38 -4.23130 105.41555 29677 ft 509 kts 332°
2026-05-07 15:38 -4.20051 105.39805 29786 ft 510 kts 332°
2026-05-07 15:38 -4.13922 105.36319 29874 ft 509 kts 332°
2026-05-07 15:39 -4.07765 105.32819 29872 ft 509 kts 332°
2026-05-07 15:39 -4.01614 105.29323 29885 ft 508 kts 332°
2026-05-07 15:40 -3.95463 105.25826 29884 ft 508 kts 332°
2026-05-07 15:40 -3.89353 105.22360 29883 ft 508 kts 332°
2026-05-07 15:41 -3.83183 105.18887 29883 ft 508 kts 332°
2026-05-07 15:41 -3.77015 105.15421 29884 ft 509 kts 332°
2026-05-07 15:42 -3.70849 105.11953 29881 ft 508 kts 332°
2026-05-07 15:42 -3.64721 105.08504 29883 ft 509 kts 332°
2026-05-07 15:43 -3.58552 105.05031 29882 ft 509 kts 332°
2026-05-07 15:43 -3.52381 105.01558 29882 ft 509 kts 332°
2026-05-07 15:44 -3.46207 104.98085 29884 ft 509 kts 332°
2026-05-07 15:44 -3.40074 104.94635 29887 ft 509 kts 332°
2026-05-07 15:45 -3.33900 104.91162 29884 ft 509 kts 332°
2026-05-07 15:45 -3.27724 104.87689 29885 ft 509 kts 332°
2026-05-07 15:46 -3.18506 104.82506 29884 ft 509 kts 332°
2026-05-07 15:47 -3.12328 104.79032 29885 ft 510 kts 332°
2026-05-07 15:47 -3.06147 104.75557 29890 ft 510 kts 332°
2026-05-07 15:48 -2.99964 104.72081 29885 ft 510 kts 332°
2026-05-07 15:48 -2.93775 104.68602 29885 ft 510 kts 332°
2026-05-07 15:49 -2.87416 104.65622 29881 ft 508 kts 342°
2026-05-07 15:49 -2.80611 104.63810 29888 ft 506 kts 351°
2026-05-07 15:50 -2.73689 104.62554 29887 ft 506 kts 351°
2026-05-07 15:50 -2.66755 104.61298 29885 ft 506 kts 351°
2026-05-07 15:51 -2.59875 104.60016 29886 ft 506 kts 351°
2026-05-07 15:51 -2.52950 104.58708 29886 ft 506 kts 350°
2026-05-07 15:52 -2.46030 104.57399 29882 ft 507 kts 350°
2026-05-07 15:52 -2.39100 104.56089 29882 ft 506 kts 350°
2026-05-07 15:53 -2.32226 104.54792 29887 ft 506 kts 351°
2026-05-07 15:53 -2.25315 104.53488 29887 ft 506 kts 351°
2026-05-07 15:54 -2.18400 104.52183 29884 ft 505 kts 351°
2026-05-07 15:54 -2.11532 104.50888 29885 ft 505 kts 351°
2026-05-07 15:55 -2.04631 104.49586 29884 ft 505 kts 351°
2026-05-07 15:55 -1.97731 104.48285 29887 ft 505 kts 351°
2026-05-07 15:56 -1.90824 104.46982 29885 ft 505 kts 351°
2026-05-07 15:56 -1.83961 104.45688 29883 ft 505 kts 351°
2026-05-07 15:57 -1.77052 104.44385 29877 ft 505 kts 351°
2026-05-07 15:57 -1.70149 104.43083 29881 ft 505 kts 351°
2026-05-07 15:58 -1.63231 104.41779 29882 ft 505 kts 351°
2026-05-07 15:58 -1.56364 104.40484 29888 ft 506 kts 351°
2026-05-07 15:59 -1.49450 104.39181 29884 ft 506 kts 351°
2026-05-07 15:59 -1.42530 104.37876 29887 ft 506 kts 351°
2026-05-07 16:00 -1.35617 104.36573 29883 ft 506 kts 351°
2026-05-07 16:00 -1.28746 104.35278 29884 ft 506 kts 351°
2026-05-07 16:01 -1.21828 104.33974 29884 ft 506 kts 351°
2026-05-07 16:01 -1.14909 104.32670 29878 ft 506 kts 351°
2026-05-07 16:02 -1.07993 104.31367 29885 ft 506 kts 351°
2026-05-07 16:02 -1.01125 104.30072 29879 ft 506 kts 351°
2026-05-07 16:03 -0.94207 104.28769 29885 ft 506 kts 351°
2026-05-07 16:03 -0.87288 104.27465 29886 ft 506 kts 351°
2026-05-07 16:04 -0.80374 104.26162 29884 ft 506 kts 351°
2026-05-07 16:04 -0.73494 104.24865 29880 ft 506 kts 351°
2026-05-07 16:05 -0.66567 104.23560 29876 ft 506 kts 351°
2026-05-07 16:05 -0.59649 104.22256 29876 ft 506 kts 351°
2026-05-07 16:06 -0.52769 104.20942 29879 ft 507 kts 350°
2026-05-07 16:06 -0.45858 104.19562 29878 ft 507 kts 350°
2026-05-07 16:07 -0.38947 104.18175 29883 ft 507 kts 350°
2026-05-07 16:07 -0.32032 104.16796 29878 ft 507 kts 350°
2026-05-07 16:08 -0.25110 104.15420 29879 ft 507 kts 350°
2026-05-07 16:08 -0.18236 104.14054 29875 ft 507 kts 350°
2026-05-07 16:09 -0.11314 104.12678 29877 ft 507 kts 350°
2026-05-07 16:09 -0.04387 104.11301 29877 ft 508 kts 350°
2026-05-07 16:10 0.02501 104.09932 29875 ft 508 kts 350°
2026-05-07 16:10 0.09434 104.08553 29872 ft 508 kts 350°
2026-05-07 16:11 0.16373 104.07173 29871 ft 509 kts 350°
2026-05-07 16:11 0.23315 104.05793 29874 ft 509 kts 350°
2026-05-07 16:12 0.30212 104.04424 29874 ft 509 kts 350°
2026-05-07 16:12 0.37174 104.03058 29880 ft 510 kts 350°
2026-05-07 16:13 0.44130 104.01693 29879 ft 510 kts 350°
2026-05-07 16:13 0.51094 104.00324 29877 ft 510 kts 350°
2026-05-07 16:14 0.58012 103.98962 29880 ft 510 kts 350°
2026-05-07 16:14 0.65020 103.97560 29881 ft 510 kts 349°
2026-05-07 16:15 0.71936 103.96173 29877 ft 510 kts 350°
2026-05-07 16:15 0.78892 103.94727 29879 ft 511 kts 349°
2026-05-07 16:16 0.85848 103.93225 29880 ft 511 kts 349°
2026-05-07 16:16 0.92796 103.91737 29878 ft 511 kts 349°
2026-05-07 16:17 0.99498 103.90310 29882 ft 511 kts 349°
2026-05-07 16:17 1.06448 103.88849 29882 ft 511 kts 349°
2026-05-07 16:18 1.13405 103.87392 29881 ft 511 kts 349°
2026-05-07 16:18 1.20355 103.85902 29879 ft 510 kts 346°
2026-05-07 16:19 1.26916 103.83290 29876 ft 508 kts 332°
2026-05-07 16:19 1.33055 103.79898 29884 ft 508 kts 333°
2026-05-07 16:20 1.39346 103.76640 29890 ft 509 kts 334°
2026-05-07 16:20 1.45575 103.73444 29885 ft 509 kts 334°
2026-05-07 16:21 1.51993 103.70492 29885 ft 508 kts 342°
2026-05-07 16:21 1.58704 103.68480 29895 ft 507 kts 344°
2026-05-07 16:22 1.65110 103.65647 29891 ft 510 kts 322°
2026-05-07 16:22 1.67659 103.63177 29898 ft 513 kts 309°
2026-05-07 16:22 1.69579 103.60174 29876 ft 513 kts 296°
2026-05-07 16:23 1.72594 103.53689 29886 ft 516 kts 295°
2026-05-07 16:23 1.75681 103.47227 29885 ft 515 kts 296°
2026-05-07 16:24 1.78816 103.40850 29887 ft 515 kts 297°
2026-05-07 16:24 1.81981 103.34435 29887 ft 515 kts 297°
2026-05-07 16:25 1.85146 103.28000 29892 ft 516 kts 296°
2026-05-07 16:25 1.88305 103.21562 29888 ft 515 kts 296°
2026-05-07 16:26 1.91458 103.15129 29887 ft 515 kts 296°
2026-05-07 16:26 1.94589 103.08739 29887 ft 515 kts 296°
2026-05-07 16:27 1.97743 103.02303 29888 ft 515 kts 296°
2026-05-07 16:27 2.00896 102.95868 29889 ft 515 kts 296°
2026-05-07 16:28 2.04051 102.89427 29889 ft 516 kts 296°
2026-05-07 16:28 2.07171 102.83030 29883 ft 516 kts 296°
2026-05-07 16:29 2.10299 102.76574 29889 ft 516 kts 296°
2026-05-07 16:29 2.13431 102.70114 29888 ft 516 kts 296°
2026-05-07 16:30 2.16601 102.63676 29883 ft 516 kts 299°
2026-05-07 16:30 2.20315 102.57600 29891 ft 516 kts 303°
2026-05-07 16:31 2.24154 102.51542 29889 ft 516 kts 303°
2026-05-07 16:31 2.27963 102.45449 29889 ft 516 kts 302°
2026-05-07 16:32 2.31748 102.39347 29883 ft 516 kts 302°
2026-05-07 16:32 2.35507 102.33289 29886 ft 516 kts 302°
2026-05-07 16:33 2.39299 102.27188 29888 ft 517 kts 302°
2026-05-07 16:33 2.43096 102.21090 29884 ft 516 kts 302°
2026-05-07 16:34 2.46894 102.14986 29884 ft 517 kts 302°
2026-05-07 16:34 2.50663 102.08925 29879 ft 517 kts 302°
2026-05-07 16:35 2.54456 102.02825 29873 ft 516 kts 302°
2026-05-07 16:35 2.58240 101.96712 29867 ft 516 kts 302°
2026-05-07 16:36 2.62016 101.90601 29864 ft 517 kts 302°
2026-05-07 16:36 2.65793 101.84490 29856 ft 516 kts 302°
2026-05-07 16:37 2.69541 101.78427 29858 ft 516 kts 302°
2026-05-07 16:37 2.73439 101.72404 29852 ft 516 kts 308°
2026-05-07 16:38 2.77955 101.66834 29861 ft 516 kts 310°
2026-05-07 16:38 2.82527 101.61304 29856 ft 516 kts 310°
2026-05-07 16:39 2.87031 101.55788 29856 ft 515 kts 310°
2026-05-07 16:39 2.91545 101.50221 29874 ft 515 kts 310°
2026-05-07 16:40 2.96061 101.44647 29877 ft 516 kts 310°
2026-05-07 16:40 3.00546 101.39115 29876 ft 515 kts 310°
2026-05-07 16:41 3.05062 101.33545 29878 ft 515 kts 310°
2026-05-07 16:41 3.09577 101.27976 29881 ft 515 kts 310°
2026-05-07 16:42 3.14510 101.22823 29869 ft 513 kts 323°
2026-05-07 16:42 3.20461 101.19029 29880 ft 510 kts 336°
2026-05-07 16:43 3.26967 101.16188 29883 ft 511 kts 338°
2026-05-07 16:43 3.33460 101.13289 29876 ft 511 kts 337°
2026-05-07 16:44 3.39938 101.10380 29880 ft 510 kts 338°
2026-05-07 16:44 3.46397 101.07551 29880 ft 510 kts 338°
2026-05-07 16:45 3.52892 101.04696 29880 ft 510 kts 338°
2026-05-07 16:45 3.59388 101.01830 29879 ft 510 kts 337°
2026-05-07 16:46 3.65871 100.98930 29881 ft 510 kts 337°
2026-05-07 16:46 3.72304 100.96026 29878 ft 511 kts 337°
2026-05-07 16:47 3.78784 100.93105 29886 ft 511 kts 337°
2026-05-07 16:47 3.85268 100.90187 29884 ft 511 kts 337°
2026-05-07 16:48 3.91747 100.87272 29883 ft 511 kts 337°
2026-05-07 16:48 3.98184 100.84375 29889 ft 511 kts 337°
2026-05-07 16:49 4.04660 100.81459 29896 ft 510 kts 337°
2026-05-07 16:49 4.11140 100.78540 29904 ft 511 kts 337°
2026-05-07 16:50 4.17620 100.75622 29911 ft 511 kts 337°
2026-05-07 16:50 4.24107 100.72712 29911 ft 511 kts 337°
2026-05-07 16:51 4.30553 100.69826 29912 ft 510 kts 337°
2026-05-07 16:51 4.37030 100.66923 29906 ft 510 kts 337°
2026-05-07 16:52 4.43509 100.64016 29902 ft 510 kts 337°
2026-05-07 16:52 4.49955 100.61124 29892 ft 511 kts 337°
2026-05-07 16:53 4.56438 100.58214 29884 ft 510 kts 337°
2026-05-07 16:53 4.62919 100.55305 29878 ft 510 kts 337°
2026-05-07 16:54 4.69396 100.52397 29875 ft 510 kts 337°
2026-05-07 16:54 4.75833 100.49507 29880 ft 510 kts 337°
2026-05-07 16:55 4.82311 100.46597 29879 ft 510 kts 337°
2026-05-07 16:55 4.88786 100.43688 29882 ft 510 kts 337°
2026-05-07 16:56 4.95255 100.40781 29878 ft 510 kts 337°
2026-05-07 16:56 5.04915 100.36439 29880 ft 509 kts 337°
2026-05-07 16:57 5.11385 100.33530 29884 ft 509 kts 337°
2026-05-07 16:57 5.17847 100.30623 29886 ft 509 kts 336°
2026-05-07 16:58 5.24277 100.27632 29879 ft 510 kts 331°
2026-05-07 16:58 5.29882 100.23355 29892 ft 511 kts 316°
2026-05-07 16:59 5.34406 100.17851 29899 ft 512 kts 307°
2026-05-07 16:59 5.38677 100.12123 29883 ft 512 kts 307°
2026-05-07 17:00 5.42974 100.06413 29881 ft 513 kts 308°
2026-05-07 17:00 5.47273 100.00772 29882 ft 512 kts 308°
2026-05-07 17:01 5.51615 99.95100 29885 ft 512 kts 308°
2026-05-07 17:01 5.55954 99.89430 29885 ft 512 kts 308°
2026-05-07 17:02 5.60296 99.83749 29885 ft 513 kts 308°
2026-05-07 17:02 5.64604 99.78108 29878 ft 512 kts 308°
2026-05-07 17:03 5.68934 99.72439 29885 ft 512 kts 308°
2026-05-07 17:03 5.73280 99.66746 29897 ft 515 kts 308°
2026-05-07 17:04 5.77650 99.61021 29883 ft 516 kts 308°
2026-05-07 17:04 5.81979 99.55347 29878 ft 515 kts 308°
2026-05-07 17:05 5.86334 99.49638 29879 ft 513 kts 307°
2026-05-07 17:05 5.90657 99.43969 29877 ft 510 kts 307°
2026-05-07 17:06 5.94975 99.38306 29888 ft 511 kts 307°
2026-05-07 17:06 5.99277 99.32662 29892 ft 514 kts 307°
2026-05-07 17:07 6.03636 99.26940 29887 ft 517 kts 307°
2026-05-07 17:07 6.08010 99.21198 29878 ft 517 kts 307°
2026-05-07 17:08 6.12372 99.15470 29878 ft 516 kts 307°
2026-05-07 17:08 6.16729 99.09746 29879 ft 516 kts 307°
2026-05-07 17:09 6.21057 99.04059 29880 ft 516 kts 307°
2026-05-07 17:09 6.25423 98.98320 29880 ft 517 kts 307°
2026-05-07 17:10 6.29789 98.92579 29880 ft 517 kts 307°
2026-05-07 17:10 6.34128 98.86873 29874 ft 517 kts 307°
2026-05-07 17:11 6.38488 98.81136 29873 ft 517 kts 307°
2026-05-07 17:11 6.42858 98.75384 29878 ft 517 kts 307°
2026-05-07 17:12 6.47213 98.69652 29867 ft 514 kts 308°
2026-05-07 17:12 6.51510 98.63992 29864 ft 510 kts 308°
2026-05-07 17:13 6.55801 98.58339 29871 ft 509 kts 308°
2026-05-07 17:13 6.60113 98.52658 29884 ft 514 kts 308°
2026-05-07 17:14 6.64462 98.46925 29877 ft 516 kts 308°
2026-05-07 17:14 6.68780 98.41231 29862 ft 514 kts 308°
2026-05-07 17:15 6.73099 98.35533 29869 ft 511 kts 308°
2026-05-07 17:15 6.77406 98.29850 29876 ft 511 kts 307°
2026-05-07 17:16 6.81690 98.24195 29880 ft 511 kts 308°
2026-05-07 17:16 6.86000 98.18504 29875 ft 512 kts 308°
2026-05-07 17:17 6.90322 98.12795 29872 ft 512 kts 308°
2026-05-07 17:17 6.94639 98.07089 29873 ft 513 kts 308°
2026-05-07 17:18 6.99073 98.01482 29871 ft 512 kts 313°
2026-05-07 17:18 7.04291 97.96683 29875 ft 512 kts 324°
2026-05-07 17:19 7.10065 97.92466 29877 ft 514 kts 324°
2026-05-07 17:19 7.15868 97.88247 29872 ft 514 kts 324°
2026-05-07 17:20 7.21634 97.83999 29871 ft 513 kts 324°
2026-05-07 17:20 7.27345 97.79765 29868 ft 512 kts 324°
2026-05-07 17:21 7.33077 97.75513 29874 ft 512 kts 324°
2026-05-07 17:21 7.38810 97.71262 29874 ft 510 kts 324°
2026-05-07 17:22 7.44506 97.67038 29868 ft 508 kts 324°
2026-05-07 17:22 7.50160 97.62844 29878 ft 509 kts 324°
2026-05-07 17:23 7.55880 97.58599 29888 ft 512 kts 325°
2026-05-07 17:23 7.61627 97.54333 29879 ft 513 kts 325°
2026-05-07 17:24 7.67373 97.50069 29873 ft 513 kts 325°
2026-05-07 17:24 7.73087 97.45842 29871 ft 513 kts 325°
2026-05-07 17:25 7.78847 97.41581 29877 ft 513 kts 325°
2026-05-07 17:25 7.84603 97.37318 29873 ft 514 kts 325°
2026-05-07 17:26 7.90357 97.33053 29872 ft 514 kts 325°
2026-05-07 17:26 7.96116 97.28783 29870 ft 514 kts 325°
2026-05-07 17:27 8.01823 97.24519 29872 ft 514 kts 322°
2026-05-07 17:27 8.06870 97.19409 29878 ft 516 kts 310°
2026-05-07 17:28 8.10897 97.13394 29881 ft 518 kts 302°
2026-05-07 17:28 8.13955 97.08197 29879 ft 518 kts 301°
2026-05-07 17:29 8.18239 97.00940 29873 ft 518 kts 302°
2026-05-07 17:29 8.21961 96.94724 29877 ft 517 kts 302°
2026-05-07 17:30 8.25068 96.89559 29872 ft 517 kts 302°
2026-05-07 17:30 8.29408 96.82340 29880 ft 518 kts 302°
2026-05-07 17:31 8.32538 96.77128 29876 ft 518 kts 302°
2026-05-07 17:31 8.36876 96.69898 29874 ft 518 kts 302°
2026-05-07 17:32 8.39981 96.64721 29872 ft 518 kts 302°
2026-05-07 17:32 8.43695 96.58526 29865 ft 512 kts 302°
2026-05-07 17:33 8.47973 96.51385 29875 ft 511 kts 302°
2026-05-07 17:33 8.51038 96.46268 29879 ft 512 kts 302°
2026-05-07 17:34 8.54728 96.40104 29870 ft 512 kts 302°
2026-05-07 17:34 8.59012 96.32945 29874 ft 512 kts 302°
2026-05-07 17:35 8.62077 96.27820 29871 ft 513 kts 302°
2026-05-07 17:35 8.65761 96.21658 29873 ft 512 kts 302°
2026-05-07 17:36 8.69445 96.15491 29868 ft 512 kts 302°
2026-05-07 17:36 8.73727 96.08321 29873 ft 512 kts 302°
2026-05-07 17:37 8.76810 96.03156 29874 ft 512 kts 302°
2026-05-07 17:37 8.80463 95.97031 29873 ft 513 kts 302°
2026-05-07 17:38 8.84143 95.90853 29874 ft 513 kts 302°
2026-05-07 17:38 8.88413 95.83677 29868 ft 512 kts 302°
2026-05-07 17:39 8.91488 95.78506 29869 ft 512 kts 302°
2026-05-07 17:39 8.95133 95.72376 29867 ft 512 kts 302°
2026-05-07 17:40 8.98801 95.66204 29871 ft 512 kts 301°
2026-05-07 17:40 9.02465 95.60035 29868 ft 511 kts 301°
2026-05-07 17:41 9.06126 95.53869 29866 ft 512 kts 301°
2026-05-07 17:41 9.09765 95.47737 29871 ft 512 kts 301°
2026-05-07 17:42 9.13428 95.41561 29863 ft 512 kts 301°
2026-05-07 17:42 9.17089 95.35386 29869 ft 512 kts 301°
2026-05-07 17:43 9.20721 95.29256 29870 ft 512 kts 301°
2026-05-07 17:43 9.24384 95.23071 29869 ft 512 kts 301°
2026-05-07 17:44 9.28045 95.16887 29868 ft 512 kts 301°
2026-05-07 17:44 9.31718 95.10679 30019 ft 515 kts 301°
2026-05-07 17:45 9.33557 95.07570 30265 ft 514 kts 301°
2026-05-07 17:45 9.35366 95.04510 30569 ft 512 kts 301°
2026-05-07 17:45 9.37190 95.01423 30874 ft 510 kts 301°
2026-05-07 17:45 9.39007 94.98349 31167 ft 508 kts 301°
2026-05-07 17:46 9.40821 94.95278 31444 ft 507 kts 301°
2026-05-07 17:46 9.42631 94.92214 31690 ft 507 kts 301°
2026-05-07 17:46 9.44440 94.89152 31800 ft 507 kts 301°
2026-05-07 17:46 9.46251 94.86084 31836 ft 507 kts 301°
2026-05-07 17:47 9.49844 94.79997 31860 ft 506 kts 301°
2026-05-07 17:47 9.53451 94.73882 31869 ft 505 kts 301°
2026-05-07 17:48 9.57056 94.67767 31870 ft 505 kts 301°
2026-05-07 17:48 9.60634 94.61694 31872 ft 505 kts 301°
2026-05-07 17:49 9.64233 94.55583 31870 ft 505 kts 301°
2026-05-07 17:49 9.67829 94.49472 31872 ft 505 kts 301°
2026-05-07 17:50 9.71601 94.43478 31868 ft 504 kts 308°
2026-05-07 17:50 9.76299 94.38228 31874 ft 503 kts 319°
2026-05-07 17:51 9.81592 94.33672 31879 ft 502 kts 321°
2026-05-07 17:51 9.86962 94.29132 31869 ft 502 kts 321°
2026-05-07 17:52 9.92298 94.24576 31874 ft 502 kts 321°
2026-05-07 17:52 9.97583 94.20026 31875 ft 502 kts 321°
2026-05-07 17:53 10.02895 94.15441 31874 ft 501 kts 321°
2026-05-07 17:53 10.08210 94.10853 31871 ft 501 kts 321°
2026-05-07 17:54 10.13523 94.06268 31873 ft 501 kts 321°
2026-05-07 17:54 10.18798 94.01713 31876 ft 501 kts 321°
2026-05-07 17:55 10.24110 93.97124 31875 ft 502 kts 321°
2026-05-07 17:55 10.29426 93.92531 31874 ft 502 kts 321°
2026-05-07 17:56 10.34737 93.87938 31874 ft 502 kts 321°
2026-05-07 17:56 10.40020 93.83369 31874 ft 502 kts 321°
2026-05-07 17:57 10.45336 93.78768 31875 ft 502 kts 321°
2026-05-07 17:57 10.50653 93.74165 31874 ft 502 kts 321°
2026-05-07 17:58 10.55971 93.69559 31874 ft 502 kts 320°
2026-05-07 17:58 10.61249 93.64985 31873 ft 503 kts 320°
2026-05-07 17:59 10.66569 93.60372 31876 ft 503 kts 320°
2026-05-07 17:59 10.71893 93.55753 31877 ft 503 kts 320°
2026-05-07 18:00 10.77211 93.51138 31876 ft 503 kts 320°
2026-05-07 18:00 10.82492 93.46552 31877 ft 503 kts 320°
2026-05-07 18:01 10.87809 93.41934 31874 ft 503 kts 320°
2026-05-07 18:01 10.93128 93.37311 31879 ft 503 kts 320°
2026-05-07 18:02 11.01068 93.30406 31877 ft 503 kts 320°
2026-05-07 18:03 11.06387 93.25778 31877 ft 503 kts 320°
2026-05-07 18:03 11.11703 93.21149 31880 ft 503 kts 320°
2026-05-07 18:04 11.17026 93.16512 31880 ft 503 kts 320°
2026-05-07 18:04 11.22343 93.11879 31874 ft 503 kts 320°
2026-05-07 18:05 11.27621 93.07277 31879 ft 503 kts 320°
2026-05-07 18:05 11.32939 93.02638 31876 ft 504 kts 320°
2026-05-07 18:06 11.38258 92.97995 31876 ft 503 kts 320°
2026-05-07 18:06 11.43579 92.93348 31877 ft 503 kts 320°
2026-05-07 18:07 11.48853 92.88740 31874 ft 503 kts 320°
2026-05-07 18:07 11.54173 92.84088 31882 ft 503 kts 320°
2026-05-07 18:08 11.59487 92.79439 31882 ft 503 kts 320°
2026-05-07 18:08 11.64787 92.74774 31883 ft 503 kts 318°
2026-05-07 18:09 11.69629 92.69681 31893 ft 504 kts 313°
2026-05-07 18:09 11.74376 92.64423 31882 ft 504 kts 313°
2026-05-07 18:10 11.79132 92.59172 31881 ft 503 kts 313°
2026-05-07 18:10 11.83904 92.53940 31880 ft 503 kts 313°
2026-05-07 18:11 11.88650 92.48751 31883 ft 503 kts 313°
2026-05-07 18:11 11.93426 92.43528 31882 ft 503 kts 313°
2026-05-07 18:12 11.98200 92.38301 31879 ft 503 kts 313°
2026-05-07 18:12 12.02968 92.33076 31879 ft 503 kts 313°
2026-05-07 18:13 12.07708 92.27879 31880 ft 503 kts 313°
2026-05-07 18:13 12.12481 92.22643 31879 ft 504 kts 313°
2026-05-07 18:14 12.17257 92.17401 31881 ft 504 kts 313°
2026-05-07 18:14 12.22035 92.12155 31878 ft 504 kts 313°
2026-05-07 18:15 12.26784 92.06936 31880 ft 504 kts 313°
2026-05-07 18:15 12.31560 92.01685 31876 ft 504 kts 313°
2026-05-07 18:16 12.36334 91.96433 31877 ft 504 kts 313°
2026-05-07 18:16 12.41111 91.91174 31878 ft 504 kts 313°
2026-05-07 18:17 12.45848 91.85958 31877 ft 504 kts 313°
2026-05-07 18:17 12.50616 91.80704 31879 ft 504 kts 313°
2026-05-07 18:18 12.55389 91.75440 31877 ft 504 kts 313°
2026-05-07 18:18 12.60159 91.70177 31876 ft 504 kts 313°
2026-05-07 18:19 12.64896 91.64949 31876 ft 504 kts 313°
2026-05-07 18:19 12.69662 91.59684 31880 ft 504 kts 313°
2026-05-07 18:20 12.74428 91.54416 31875 ft 504 kts 313°
2026-05-07 18:20 12.79195 91.49145 31877 ft 504 kts 313°
2026-05-07 18:21 12.83927 91.43909 31876 ft 504 kts 312°
2026-05-07 18:21 12.88678 91.38648 31876 ft 502 kts 312°
2026-05-07 18:22 12.93431 91.33382 31879 ft 504 kts 312°
2026-05-07 18:22 12.98162 91.28138 31881 ft 505 kts 312°
2026-05-07 18:23 13.02923 91.22857 31878 ft 504 kts 312°
2026-05-07 18:23 13.07676 91.17582 31879 ft 503 kts 312°
2026-05-07 18:24 13.12426 91.12306 31882 ft 503 kts 312°
2026-05-07 18:24 13.17142 91.07066 31880 ft 503 kts 312°
2026-05-07 18:25 13.21889 91.01788 31882 ft 503 kts 312°
2026-05-07 18:25 13.26629 90.96514 31882 ft 503 kts 312°
2026-05-07 18:26 13.31370 90.91236 31882 ft 503 kts 312°
2026-05-07 18:26 13.36081 90.85988 31882 ft 503 kts 312°
2026-05-07 18:27 13.40825 90.80700 31883 ft 503 kts 312°
2026-05-07 18:27 13.45564 90.75414 31882 ft 503 kts 312°
2026-05-07 18:28 13.50305 90.70122 31881 ft 503 kts 312°
2026-05-07 18:28 13.55038 90.64837 31884 ft 502 kts 312°
2026-05-07 18:29 13.59735 90.59587 31878 ft 502 kts 312°
2026-05-07 18:29 13.64454 90.54311 31882 ft 501 kts 312°
2026-05-07 18:30 13.69172 90.49031 31886 ft 501 kts 312°
2026-05-07 18:30 13.73884 90.43756 31886 ft 501 kts 311°
2026-05-07 18:31 13.78569 90.38507 31886 ft 501 kts 311°
2026-05-07 18:31 13.83280 90.33226 31884 ft 500 kts 311°
2026-05-07 18:32 13.87984 90.27949 31885 ft 500 kts 311°
2026-05-07 18:32 13.92689 90.22667 31886 ft 501 kts 311°
2026-05-07 18:33 13.97361 90.17420 31885 ft 501 kts 311°
2026-05-07 18:33 14.02067 90.12130 31888 ft 501 kts 311°
2026-05-07 18:34 14.06772 90.06838 31885 ft 501 kts 311°
2026-05-07 18:34 14.11474 90.01547 31885 ft 501 kts 311°
2026-05-07 18:35 14.16151 89.96279 31888 ft 501 kts 311°
2026-05-07 18:35 14.20856 89.90977 31885 ft 502 kts 311°
2026-05-07 18:36 14.25566 89.85666 31886 ft 502 kts 311°
2026-05-07 18:36 14.30271 89.80356 31887 ft 502 kts 311°
2026-05-07 18:37 14.34948 89.75075 31886 ft 502 kts 311°
2026-05-07 18:37 14.39652 89.69760 31885 ft 502 kts 311°
2026-05-07 18:38 14.44355 89.64442 31885 ft 502 kts 311°
2026-05-07 18:38 14.49058 89.59121 31886 ft 501 kts 311°
2026-05-07 18:39 14.53723 89.53838 31882 ft 501 kts 311°
2026-05-07 18:39 14.58423 89.48513 31884 ft 501 kts 311°
2026-05-07 18:40 14.63119 89.43187 31885 ft 502 kts 311°
2026-05-07 18:40 14.67815 89.37859 31886 ft 502 kts 311°
2026-05-07 18:41 14.72476 89.32566 31881 ft 502 kts 311°
2026-05-07 18:41 14.77244 89.27295 31884 ft 502 kts 313°
2026-05-07 18:42 14.82131 89.22142 31883 ft 502 kts 313°
2026-05-07 18:42 14.87018 89.16996 31886 ft 502 kts 313°
2026-05-07 18:43 14.91860 89.11854 31872 ft 502 kts 312°
2026-05-07 18:43 14.96720 89.06667 31885 ft 502 kts 312°
2026-05-07 18:44 15.01576 89.01477 31889 ft 502 kts 312°
2026-05-07 18:44 15.06435 88.96283 31888 ft 502 kts 312°
2026-05-07 18:45 15.11258 88.91125 31876 ft 502 kts 312°
2026-05-07 18:45 15.16108 88.85935 31886 ft 502 kts 312°
2026-05-07 18:46 15.20956 88.80743 31889 ft 501 kts 312°
2026-05-07 18:46 15.25801 88.75551 31875 ft 501 kts 312°
2026-05-07 18:47 15.30638 88.70365 31871 ft 501 kts 312°
2026-05-07 18:47 15.35445 88.65206 31890 ft 501 kts 312°
2026-05-07 18:48 15.40280 88.60012 31871 ft 501 kts 312°
2026-05-07 18:48 15.45115 88.54817 31870 ft 501 kts 312°
2026-05-07 18:49 15.49918 88.49651 31874 ft 501 kts 312°
2026-05-07 18:49 15.54751 88.44450 31879 ft 500 kts 312°
2026-05-07 18:50 15.59574 88.39256 31873 ft 500 kts 312°
2026-05-07 18:50 15.64396 88.34058 31878 ft 500 kts 312°
2026-05-07 18:51 15.69191 88.28886 31880 ft 500 kts 311°
2026-05-07 18:51 15.74010 88.23685 31876 ft 500 kts 311°
2026-05-07 18:52 15.78825 88.18485 31877 ft 499 kts 311°
2026-05-07 18:52 15.83635 88.13285 31879 ft 499 kts 311°
2026-05-07 18:53 15.88410 88.08119 31881 ft 499 kts 311°
2026-05-07 18:53 15.93215 88.02918 31875 ft 499 kts 311°
2026-05-07 18:54 15.98018 87.97715 31882 ft 499 kts 311°
2026-05-07 18:54 16.02820 87.92509 31875 ft 499 kts 311°
2026-05-07 18:55 16.07586 87.87339 31873 ft 498 kts 311°
2026-05-07 18:55 16.12379 87.82134 31879 ft 498 kts 311°
2026-05-07 18:56 16.17177 87.76920 31876 ft 499 kts 311°
2026-05-07 18:56 16.21974 87.71704 31877 ft 499 kts 311°
2026-05-07 18:57 16.26737 87.66521 31875 ft 499 kts 311°
2026-05-07 18:57 16.31534 87.61298 31875 ft 499 kts 311°
2026-05-07 18:58 16.36326 87.56075 31873 ft 499 kts 311°
2026-05-07 18:58 16.41084 87.50886 31872 ft 499 kts 311°
2026-05-07 18:59 16.45873 87.45658 31876 ft 499 kts 311°
2026-05-07 18:59 16.50659 87.40431 31872 ft 498 kts 311°
2026-05-07 19:00 16.55440 87.35204 31869 ft 498 kts 311°
2026-05-07 19:00 16.60176 87.30022 31872 ft 497 kts 311°
2026-05-07 19:01 16.64945 87.24801 31870 ft 497 kts 311°
2026-05-07 19:01 16.69705 87.19583 31874 ft 496 kts 311°
2026-05-07 19:02 16.74466 87.14366 31872 ft 496 kts 311°
2026-05-07 19:02 16.79245 87.09237 31870 ft 496 kts 311°
2026-05-07 19:03 16.84080 87.04096 31870 ft 496 kts 311°
2026-05-07 19:03 16.88897 86.98960 31871 ft 495 kts 311°
2026-05-07 19:04 16.93702 86.93818 31869 ft 494 kts 311°
2026-05-07 19:04 16.98463 86.88714 31871 ft 494 kts 311°
2026-05-07 19:05 17.03254 86.83574 31870 ft 493 kts 311°
2026-05-07 19:05 17.08032 86.78445 31870 ft 493 kts 311°
2026-05-07 19:06 17.12809 86.73314 31868 ft 492 kts 311°
2026-05-07 19:06 17.19929 86.65657 31872 ft 492 kts 311°
2026-05-07 19:07 17.24692 86.60531 31865 ft 491 kts 311°
2026-05-07 19:07 17.29454 86.55401 31868 ft 491 kts 311°
2026-05-07 19:08 17.34177 86.50310 31868 ft 491 kts 310°
2026-05-07 19:08 17.38928 86.45184 31865 ft 491 kts 310°
2026-05-07 19:09 17.43677 86.40057 31865 ft 490 kts 310°
2026-05-07 19:09 17.48417 86.34934 31867 ft 490 kts 310°
2026-05-07 19:10 17.53129 86.29839 31864 ft 490 kts 310°
2026-05-07 19:10 17.57865 86.24712 31865 ft 489 kts 310°
2026-05-07 19:11 17.62594 86.19590 31866 ft 489 kts 310°
2026-05-07 19:11 17.67296 86.14492 31867 ft 489 kts 310°
2026-05-07 19:12 17.72027 86.09360 31864 ft 489 kts 310°
2026-05-07 19:12 17.76754 86.04228 31862 ft 489 kts 310°
2026-05-07 19:13 17.81476 85.99096 31865 ft 489 kts 310°
2026-05-07 19:13 17.86168 85.93994 31862 ft 489 kts 310°
2026-05-07 19:14 17.90885 85.88859 31863 ft 489 kts 310°
2026-05-07 19:14 17.95602 85.83720 31865 ft 488 kts 310°
2026-05-07 19:15 18.00317 85.78580 31865 ft 489 kts 310°
2026-05-07 19:15 18.04998 85.73471 31865 ft 488 kts 310°
2026-05-07 19:16 18.09709 85.68327 31864 ft 489 kts 310°
2026-05-07 19:16 18.14419 85.63180 31865 ft 488 kts 310°
2026-05-07 19:17 18.19130 85.58026 31865 ft 488 kts 310°
2026-05-07 19:17 18.23804 85.52909 31867 ft 488 kts 310°
2026-05-07 19:18 18.28512 85.47751 31867 ft 489 kts 310°
2026-05-07 19:18 18.33215 85.42593 31868 ft 489 kts 310°
2026-05-07 19:19 18.37921 85.37429 31865 ft 488 kts 310°
2026-05-07 19:19 18.42595 85.32294 31866 ft 489 kts 310°
2026-05-07 19:20 18.47289 85.27134 31869 ft 488 kts 310°
2026-05-07 19:20 18.51983 85.21970 31870 ft 488 kts 310°
2026-05-07 19:21 18.56677 85.16800 31868 ft 488 kts 310°
2026-05-07 19:21 18.61334 85.11666 31869 ft 488 kts 310°
2026-05-07 19:22 18.66017 85.06499 31868 ft 487 kts 310°
2026-05-07 19:22 18.70702 85.01326 31869 ft 487 kts 310°
2026-05-07 19:23 18.75352 84.96189 31868 ft 487 kts 310°
2026-05-07 19:23 18.80033 84.91022 31868 ft 487 kts 310°
2026-05-07 19:24 18.84709 84.85857 31871 ft 486 kts 309°
2026-05-07 19:24 18.89379 84.80686 31870 ft 486 kts 309°
2026-05-07 19:25 18.94040 84.75518 31875 ft 486 kts 309°
2026-05-07 19:25 18.98667 84.70383 31877 ft 485 kts 309°
2026-05-07 19:26 19.03318 84.65218 31876 ft 485 kts 309°
2026-05-07 19:26 19.07959 84.60058 31880 ft 484 kts 309°
2026-05-07 19:27 19.12571 84.54927 31887 ft 484 kts 309°
2026-05-07 19:27 19.17204 84.49767 31888 ft 484 kts 309°
2026-05-07 19:28 19.21832 84.44609 31899 ft 483 kts 309°
2026-05-07 19:28 19.26456 84.39449 31898 ft 483 kts 309°
2026-05-07 19:29 19.31047 84.34324 31906 ft 483 kts 309°
2026-05-07 19:29 19.35664 84.29165 31907 ft 482 kts 309°
2026-05-07 19:30 19.40276 84.24004 31908 ft 482 kts 309°
2026-05-07 19:30 19.44908 84.18863 31915 ft 483 kts 310°
2026-05-07 19:31 19.49594 84.13834 31910 ft 482 kts 310°
2026-05-07 19:31 19.54316 84.08793 31916 ft 481 kts 310°
2026-05-07 19:32 19.59025 84.03735 31908 ft 482 kts 310°
2026-05-07 19:32 19.63732 83.98661 31913 ft 482 kts 310°
2026-05-07 19:33 19.68388 83.93635 31919 ft 480 kts 310°
2026-05-07 19:33 19.73066 83.88582 31917 ft 480 kts 310°
2026-05-07 19:34 19.77743 83.83526 31917 ft 480 kts 310°
2026-05-07 19:34 19.82417 83.78470 31910 ft 479 kts 310°
2026-05-07 19:35 19.87049 83.73454 31906 ft 479 kts 310°
2026-05-07 19:35 19.91706 83.68405 31886 ft 478 kts 310°
2026-05-07 19:36 19.96365 83.63350 31902 ft 479 kts 310°
2026-05-07 19:36 20.01018 83.58296 31895 ft 478 kts 310°
2026-05-07 19:37 20.05629 83.53286 31890 ft 476 kts 310°
2026-05-07 19:37 20.10259 83.48250 31886 ft 476 kts 310°
2026-05-07 19:38 20.14893 83.43203 31858 ft 476 kts 310°
2026-05-07 19:38 20.19514 83.38167 31858 ft 475 kts 310°
2026-05-07 19:39 20.24100 83.33165 31848 ft 475 kts 310°
2026-05-07 19:39 20.28709 83.28134 31859 ft 474 kts 310°
2026-05-07 19:40 20.33313 83.23101 31852 ft 475 kts 310°
2026-05-07 19:40 20.37894 83.18090 31848 ft 474 kts 310°
2026-05-07 19:41 20.42491 83.13058 31845 ft 474 kts 310°
2026-05-07 19:41 20.47087 83.08021 31849 ft 473 kts 310°
2026-05-07 19:42 20.51672 83.02991 31849 ft 473 kts 310°
2026-05-07 19:42 20.56223 82.97995 31851 ft 473 kts 309°
2026-05-07 19:43 20.60803 82.92961 31853 ft 472 kts 309°
2026-05-07 19:43 20.65373 82.87928 31857 ft 472 kts 309°
2026-05-07 19:44 20.69941 82.82891 31861 ft 472 kts 309°
2026-05-07 19:44 20.74469 82.77893 31860 ft 471 kts 309°
2026-05-07 19:45 20.79025 82.72859 31860 ft 471 kts 309°
2026-05-07 19:45 20.83572 82.67830 31858 ft 471 kts 309°
2026-05-07 19:46 20.88119 82.62797 31863 ft 470 kts 309°
2026-05-07 19:46 20.92635 82.57806 31868 ft 470 kts 309°
2026-05-07 19:47 20.97198 82.52790 31870 ft 470 kts 309°
2026-05-07 19:47 21.01766 82.47767 31867 ft 471 kts 309°
2026-05-07 19:48 21.06297 82.42775 31863 ft 471 kts 309°
2026-05-07 19:48 21.10856 82.37745 31865 ft 471 kts 309°
2026-05-07 19:49 21.15416 82.32707 31860 ft 471 kts 309°
2026-05-07 19:49 21.19976 82.27666 31871 ft 471 kts 309°
2026-05-07 19:50 21.24507 82.22652 31872 ft 472 kts 309°
2026-05-07 19:50 21.29071 82.17596 31872 ft 472 kts 309°
2026-05-07 19:51 21.33630 82.12542 31854 ft 471 kts 309°
2026-05-07 19:51 21.38188 82.07483 31856 ft 471 kts 309°
2026-05-07 19:52 21.42706 82.02464 31862 ft 471 kts 309°
2026-05-07 19:52 21.47271 81.97428 31862 ft 471 kts 310°
2026-05-07 19:53 21.51913 81.92465 31862 ft 471 kts 310°
2026-05-07 19:53 21.56560 81.87508 31862 ft 470 kts 310°
2026-05-07 19:54 21.61155 81.82579 31864 ft 470 kts 310°
2026-05-07 19:54 21.65777 81.77606 31865 ft 470 kts 310°
2026-05-07 19:55 21.70394 81.72634 31861 ft 469 kts 310°
2026-05-07 19:55 21.74996 81.67675 31863 ft 468 kts 310°
2026-05-07 19:56 21.79554 81.62750 31868 ft 467 kts 309°
2026-05-07 19:56 21.84091 81.57743 31867 ft 467 kts 309°
2026-05-07 19:57 21.88614 81.52730 31865 ft 466 kts 309°
2026-05-07 19:57 21.93107 81.47762 31869 ft 465 kts 309°
2026-05-07 19:58 21.97557 81.42715 31870 ft 464 kts 308°
2026-05-07 19:58 22.01979 81.37645 31872 ft 464 kts 309°
2026-05-07 19:59 22.06412 81.32605 31871 ft 464 kts 310°
2026-05-07 19:59 22.11488 81.28237 31889 ft 471 kts 321°
2026-05-07 20:00 22.17224 81.24847 31890 ft 477 kts 329°
2026-05-07 20:00 22.23283 81.21899 31892 ft 477 kts 330°
2026-05-07 20:01 22.29331 81.18970 31893 ft 476 kts 330°
2026-05-07 20:01 22.35316 81.16027 31899 ft 475 kts 329°
2026-05-07 20:02 22.41326 81.13046 31911 ft 475 kts 329°
2026-05-07 20:02 22.47334 81.10058 31900 ft 475 kts 329°
2026-05-07 20:03 22.53333 81.07075 31911 ft 475 kts 329°
2026-05-07 20:03 22.59297 81.04107 31920 ft 475 kts 329°
2026-05-07 20:04 22.65305 81.01115 31907 ft 475 kts 329°
2026-05-07 20:04 22.71309 80.98122 31911 ft 475 kts 329°
2026-05-07 20:05 22.77307 80.95129 31905 ft 474 kts 329°
2026-05-07 20:05 22.83261 80.92156 31897 ft 474 kts 329°
2026-05-07 20:06 22.89239 80.89166 31897 ft 473 kts 329°
2026-05-07 20:06 22.95226 80.86170 31897 ft 473 kts 329°
2026-05-07 20:07 23.01199 80.83178 31892 ft 473 kts 329°
2026-05-07 20:07 23.07127 80.80204 31886 ft 472 kts 329°
2026-05-07 20:08 23.13089 80.77212 31890 ft 471 kts 329°
2026-05-07 20:08 23.19036 80.74215 31881 ft 471 kts 329°
2026-05-07 20:09 23.24965 80.71206 31871 ft 470 kts 329°
2026-05-07 20:10 23.33817 80.66705 31862 ft 470 kts 329°
2026-05-07 20:10 23.39732 80.63696 31873 ft 469 kts 329°
2026-05-07 20:11 23.45651 80.60683 31862 ft 469 kts 329°
2026-05-07 20:11 23.51562 80.57671 31864 ft 469 kts 329°
2026-05-07 20:12 23.57429 80.54678 31850 ft 468 kts 329°
2026-05-07 20:12 23.63321 80.51671 31857 ft 467 kts 329°
2026-05-07 20:13 23.69210 80.48660 31849 ft 468 kts 329°
2026-05-07 20:13 23.75066 80.45664 31849 ft 468 kts 329°
2026-05-07 20:14 23.80956 80.42647 31852 ft 468 kts 329°
2026-05-07 20:14 23.86847 80.39627 31846 ft 467 kts 329°
2026-05-07 20:15 23.92736 80.36605 31849 ft 467 kts 329°
2026-05-07 20:15 23.98573 80.33607 31847 ft 467 kts 329°
2026-05-07 20:16 24.04445 80.30588 31848 ft 467 kts 329°
2026-05-07 20:16 24.10329 80.27559 31846 ft 467 kts 329°
2026-05-07 20:17 24.16198 80.24535 31844 ft 466 kts 329°
2026-05-07 20:17 24.22021 80.21532 31844 ft 466 kts 329°
2026-05-07 20:18 24.27884 80.18505 31847 ft 465 kts 329°
2026-05-07 20:18 24.33738 80.15480 31842 ft 465 kts 329°
2026-05-07 20:19 24.39591 80.12451 31837 ft 465 kts 329°
2026-05-07 20:19 24.45402 80.09442 31839 ft 465 kts 329°
2026-05-07 20:20 24.51250 80.06410 31832 ft 464 kts 329°
2026-05-07 20:20 24.57089 80.03380 31839 ft 464 kts 329°
2026-05-07 20:21 24.62929 80.00345 31840 ft 464 kts 329°
2026-05-07 20:21 24.68719 79.97334 31837 ft 463 kts 329°
2026-05-07 20:22 24.74537 79.94305 31836 ft 463 kts 329°
2026-05-07 20:22 24.79755 79.90402 31843 ft 451 kts 312°
2026-05-07 20:23 24.83597 79.85091 31826 ft 444 kts 297°
2026-05-07 20:23 24.86577 79.79122 31828 ft 446 kts 297°
2026-05-07 20:24 24.89543 79.73134 31831 ft 444 kts 297°
2026-05-07 20:24 24.92532 79.67173 31832 ft 444 kts 297°
2026-05-07 20:25 24.95513 79.61261 31829 ft 445 kts 297°
2026-05-07 20:25 24.98519 79.55307 31832 ft 444 kts 297°
2026-05-07 20:26 25.01520 79.49354 31834 ft 444 kts 297°
2026-05-07 20:26 25.04498 79.43439 31833 ft 444 kts 297°
2026-05-07 20:27 25.07496 79.37474 31834 ft 445 kts 297°
2026-05-07 20:27 25.10490 79.31509 31831 ft 444 kts 297°
2026-05-07 20:28 25.13478 79.25549 31834 ft 443 kts 297°
2026-05-07 20:28 25.16438 79.19637 31834 ft 443 kts 297°
2026-05-07 20:29 25.19413 79.13688 31833 ft 442 kts 297°
2026-05-07 20:29 25.22384 79.07738 31836 ft 442 kts 297°
2026-05-07 20:30 25.25352 79.01788 31840 ft 442 kts 298°
2026-05-07 20:30 25.28295 78.95879 31831 ft 441 kts 298°
2026-05-07 20:31 25.31250 78.89939 31830 ft 441 kts 298°
2026-05-07 20:31 25.34206 78.83989 31834 ft 441 kts 298°
2026-05-07 20:32 25.37157 78.78041 31837 ft 441 kts 298°
2026-05-07 20:32 25.40086 78.72132 31837 ft 441 kts 298°
2026-05-07 20:33 25.43031 78.66180 31819 ft 441 kts 298°
2026-05-07 20:33 25.45968 78.60238 31823 ft 440 kts 298°
2026-05-07 20:34 25.48905 78.54287 31818 ft 441 kts 298°
2026-05-07 20:34 25.51822 78.48370 31821 ft 441 kts 298°
2026-05-07 20:35 25.54755 78.42410 31825 ft 441 kts 298°
2026-05-07 20:35 25.57692 78.36439 31823 ft 442 kts 298°
2026-05-07 20:36 25.61360 78.31087 31834 ft 445 kts 316°
2026-05-07 20:36 25.66503 78.27228 31817 ft 452 kts 333°
2026-05-07 20:37 25.72378 78.24640 31829 ft 455 kts 335°
2026-05-07 20:37 25.78281 78.22106 31824 ft 455 kts 334°
2026-05-07 20:38 25.84119 78.19540 31827 ft 454 kts 334°
2026-05-07 20:38 25.89982 78.16924 31828 ft 454 kts 334°
2026-05-07 20:39 25.95836 78.14300 31833 ft 454 kts 334°
2026-05-07 20:39 26.01697 78.11670 31844 ft 454 kts 334°
2026-05-07 20:40 26.07522 78.09056 31851 ft 454 kts 334°
2026-05-07 20:40 26.13375 78.06427 31859 ft 454 kts 334°
2026-05-07 20:41 26.19235 78.03792 31869 ft 454 kts 334°
2026-05-07 20:41 26.25049 78.01174 31864 ft 454 kts 334°
2026-05-07 20:42 26.30903 77.98536 31867 ft 454 kts 334°
2026-05-07 20:42 26.36757 77.95895 31854 ft 453 kts 334°
2026-05-07 20:43 26.42591 77.93260 31847 ft 452 kts 334°
2026-05-07 20:43 26.48376 77.90643 31839 ft 452 kts 334°
2026-05-07 20:44 26.54204 77.88028 31840 ft 451 kts 335°
2026-05-07 20:44 26.60041 77.85470 31842 ft 451 kts 335°
2026-05-07 20:45 26.65890 77.82908 31837 ft 452 kts 335°
2026-05-07 20:45 26.71695 77.80354 31841 ft 452 kts 335°
2026-05-07 20:46 26.77540 77.77776 31843 ft 452 kts 335°
2026-05-07 20:46 26.83389 77.75193 31841 ft 451 kts 335°
2026-05-07 20:47 26.89226 77.72612 31838 ft 451 kts 335°
2026-05-07 20:47 26.95030 77.70043 31836 ft 452 kts 335°
2026-05-07 20:48 27.00878 77.67452 31831 ft 452 kts 335°
2026-05-07 20:48 27.06728 77.64857 31832 ft 452 kts 335°
2026-05-07 20:49 27.12583 77.62256 31836 ft 453 kts 335°
2026-05-07 20:49 27.18398 77.59671 31842 ft 453 kts 335°
2026-05-07 20:50 27.24315 77.57214 31844 ft 455 kts 338°
2026-05-07 20:50 27.30354 77.55080 31849 ft 455 kts 339°
2026-05-07 20:51 27.36354 77.52973 31849 ft 454 kts 339°
2026-05-07 20:51 27.42381 77.50826 31848 ft 454 kts 339°
2026-05-07 20:52 27.48411 77.48667 31849 ft 454 kts 339°
2026-05-07 20:52 27.54437 77.46509 31842 ft 454 kts 339°
2026-05-07 20:53 27.60420 77.44360 31840 ft 455 kts 339°
2026-05-07 20:53 27.66441 77.42193 31842 ft 454 kts 339°
2026-05-07 20:54 27.72457 77.40025 31849 ft 454 kts 339°
2026-05-07 20:54 27.78480 77.37852 31846 ft 454 kts 339°
2026-05-07 20:55 27.84495 77.35680 31835 ft 454 kts 339°
2026-05-07 20:55 27.90474 77.33518 31835 ft 454 kts 339°
2026-05-07 20:56 27.96494 77.31338 31835 ft 454 kts 339°
2026-05-07 20:56 28.02510 77.29158 31838 ft 454 kts 339°
2026-05-07 20:57 28.08487 77.26990 31842 ft 455 kts 340°
2026-05-07 20:57 28.11512 77.25891 32010 ft 457 kts 340°
2026-05-07 20:57 28.14527 77.24795 32428 ft 454 kts 339°
2026-05-07 20:57 28.17521 77.23708 32907 ft 449 kts 339°
2026-05-07 20:58 28.20483 77.22632 33398 ft 445 kts 339°
2026-05-07 20:58 28.23422 77.21562 33805 ft 443 kts 339°
2026-05-07 20:58 28.26368 77.20488 33820 ft 445 kts 339°
2026-05-07 20:59 28.32211 77.18356 33832 ft 443 kts 339°
2026-05-07 20:59 28.38081 77.16213 33836 ft 443 kts 339°
2026-05-07 21:00 28.43943 77.14071 33837 ft 443 kts 339°
2026-05-07 21:00 28.49807 77.11926 33830 ft 442 kts 339°
2026-05-07 21:01 28.55431 77.09306 33834 ft 438 kts 328°
2026-05-07 21:01 28.60462 77.05418 33826 ft 437 kts 317°
2026-05-07 21:02 28.64866 77.00679 33832 ft 436 kts 315°
2026-05-07 21:02 28.69202 76.95904 33835 ft 437 kts 315°
2026-05-07 21:03 28.73590 76.91129 33838 ft 436 kts 316°
2026-05-07 21:03 28.77981 76.86367 33841 ft 436 kts 316°
2026-05-07 21:04 28.82425 76.81664 33843 ft 437 kts 320°
2026-05-07 21:04 28.87289 76.77562 33848 ft 438 kts 323°
2026-05-07 21:05 28.92238 76.73503 33835 ft 438 kts 323°
2026-05-07 21:05 28.97177 76.69426 33842 ft 438 kts 323°
2026-05-07 21:06 29.02108 76.65334 33838 ft 438 kts 322°
2026-05-07 21:06 29.07006 76.61259 33843 ft 439 kts 322°
2026-05-07 21:07 29.11943 76.57147 33842 ft 439 kts 322°
2026-05-07 21:07 29.16885 76.53026 33838 ft 439 kts 322°
2026-05-07 21:08 29.21823 76.48904 33844 ft 439 kts 322°
2026-05-07 21:08 29.26723 76.44809 33837 ft 439 kts 322°
2026-05-07 21:09 29.31656 76.40681 33836 ft 439 kts 322°
2026-05-07 21:09 29.36587 76.36549 33838 ft 439 kts 322°
2026-05-07 21:10 29.41515 76.32415 33839 ft 439 kts 322°
2026-05-07 21:10 29.46406 76.28307 33835 ft 439 kts 322°
2026-05-07 21:11 29.51330 76.24166 33839 ft 439 kts 322°
2026-05-07 21:11 29.58711 76.17950 33838 ft 439 kts 322°
2026-05-07 21:12 29.63590 76.13834 33836 ft 438 kts 322°
2026-05-07 21:12 29.68502 76.09685 33842 ft 438 kts 322°
2026-05-07 21:13 29.73406 76.05537 33836 ft 438 kts 322°
2026-05-07 21:13 29.78308 76.01386 33844 ft 437 kts 322°
2026-05-07 21:14 29.83173 75.97267 33843 ft 437 kts 322°
2026-05-07 21:14 29.88096 75.93181 33844 ft 436 kts 323°
2026-05-07 21:15 29.93037 75.89108 33839 ft 436 kts 323°
2026-05-07 21:15 29.97965 75.85032 33843 ft 436 kts 323°
2026-05-07 21:16 30.02864 75.80968 33841 ft 436 kts 323°
2026-05-07 21:16 30.07791 75.76871 33844 ft 437 kts 323°
2026-05-07 21:17 30.12720 75.72768 33846 ft 437 kts 323°
2026-05-07 21:17 30.17654 75.68656 33841 ft 437 kts 323°
2026-05-07 21:18 30.22556 75.64566 33844 ft 438 kts 323°
2026-05-07 21:18 30.27491 75.60443 33845 ft 438 kts 323°
2026-05-07 21:19 30.32434 75.56307 33841 ft 438 kts 322°
2026-05-07 21:19 30.37373 75.52171 33842 ft 438 kts 322°
2026-05-07 21:20 30.42306 75.48033 33845 ft 438 kts 322°
2026-05-07 21:20 30.47214 75.43912 33839 ft 438 kts 322°
2026-05-07 21:21 30.52157 75.39755 33844 ft 440 kts 322°
2026-05-07 21:21 30.57109 75.35586 33847 ft 440 kts 322°
2026-05-07 21:22 30.62034 75.31434 33840 ft 440 kts 322°
2026-05-07 21:22 30.66979 75.27259 33842 ft 439 kts 322°
2026-05-07 21:23 30.71923 75.23080 33848 ft 440 kts 322°
2026-05-07 21:23 30.76876 75.18888 33844 ft 441 kts 322°
2026-05-07 21:24 30.81728 75.14541 33843 ft 439 kts 316°
2026-05-07 21:24 30.86153 75.09712 33844 ft 439 kts 316°
2026-05-07 21:25 30.90608 75.04825 33846 ft 440 kts 316°
2026-05-07 21:25 30.95066 74.99955 33847 ft 440 kts 316°
2026-05-07 21:26 30.99529 74.95086 33843 ft 440 kts 316°
2026-05-07 21:26 31.03967 74.90239 33844 ft 440 kts 316°
2026-05-07 21:27 31.08430 74.85359 33840 ft 440 kts 316°
2026-05-07 21:27 31.12889 74.80476 33840 ft 440 kts 316°
2026-05-07 21:28 31.17351 74.75583 33844 ft 440 kts 316°
2026-05-07 21:28 31.21781 74.70718 33844 ft 440 kts 316°
2026-05-07 21:29 31.26236 74.65818 33847 ft 440 kts 316°
2026-05-07 21:29 31.30695 74.60908 33845 ft 440 kts 316°
2026-05-07 21:30 31.35150 74.56051 33824 ft 441 kts 318°
2026-05-07 21:30 31.39885 74.51492 33833 ft 441 kts 320°
2026-05-07 21:31 31.44655 74.46961 33831 ft 441 kts 319°
2026-05-07 21:31 31.48601 74.43177 33833 ft 441 kts 319°
2026-05-07 21:32 31.53356 74.38625 33832 ft 442 kts 320°
2026-05-07 21:32 31.58985 74.33464 33837 ft 442 kts 321°
2026-05-07 21:33 31.63839 74.29037 33838 ft 442 kts 321°
2026-05-07 21:33 31.67866 74.25340 33842 ft 443 kts 321°
2026-05-07 21:34 31.72714 74.20873 33849 ft 443 kts 321°
2026-05-07 21:34 31.78351 74.15670 33847 ft 443 kts 321°
2026-05-07 21:35 31.82382 74.11946 33832 ft 443 kts 321°
2026-05-07 21:35 31.87223 74.07456 33849 ft 443 kts 320°
2026-05-07 21:36 31.92841 74.02200 33842 ft 444 kts 320°
2026-05-07 21:36 31.96925 73.98454 33831 ft 445 kts 322°
2026-05-07 21:37 32.01833 73.94099 33831 ft 445 kts 322°
2026-05-07 21:37 32.06774 73.89720 33852 ft 444 kts 322°
2026-05-07 21:38 32.11704 73.85323 33854 ft 444 kts 322°
2026-05-07 21:38 32.16600 73.80939 33834 ft 445 kts 322°
2026-05-07 21:39 32.22360 73.75771 33833 ft 445 kts 322°
2026-05-07 21:39 32.27255 73.71372 33836 ft 445 kts 322°
2026-05-07 21:40 32.31388 73.67655 33850 ft 445 kts 322°
2026-05-07 21:40 32.36283 73.63245 33842 ft 445 kts 322°
2026-05-07 21:41 32.41214 73.58798 33839 ft 446 kts 322°
2026-05-07 21:41 32.46154 73.54336 33844 ft 447 kts 322°
2026-05-07 21:42 32.51091 73.49870 33854 ft 447 kts 322°
2026-05-07 21:42 32.55998 73.45425 33843 ft 447 kts 322°
2026-05-07 21:43 32.60944 73.40938 33841 ft 448 kts 322°
2026-05-07 21:43 32.65890 73.36444 33858 ft 448 kts 322°
2026-05-07 21:44 32.70833 73.31948 33862 ft 448 kts 321°
2026-05-07 21:44 32.75560 73.27208 33849 ft 448 kts 314°
2026-05-07 21:45 32.79583 73.21551 33850 ft 449 kts 304°
2026-05-07 21:45 32.83029 73.15367 33869 ft 449 kts 303°
2026-05-07 21:46 32.86412 73.09183 33877 ft 448 kts 303°
2026-05-07 21:46 32.89831 73.02969 33879 ft 449 kts 303°
2026-05-07 21:47 32.93264 72.96755 33857 ft 449 kts 304°
2026-05-07 21:47 32.96701 72.90536 33877 ft 450 kts 304°
2026-05-07 21:48 33.00116 72.84345 33876 ft 450 kts 304°
2026-05-07 21:48 33.03548 72.78111 33857 ft 450 kts 303°
2026-05-07 21:49 33.06980 72.71867 33867 ft 450 kts 303°
2026-05-07 21:49 33.10411 72.65614 33867 ft 451 kts 303°
2026-05-07 21:50 33.13816 72.59399 33859 ft 451 kts 303°
2026-05-07 21:50 33.17245 72.53127 33853 ft 451 kts 303°
2026-05-07 21:51 33.20668 72.46857 33861 ft 451 kts 303°
2026-05-07 21:51 33.24091 72.40576 33855 ft 451 kts 303°
2026-05-07 21:52 33.27489 72.34330 33840 ft 451 kts 303°
2026-05-07 21:52 33.30908 72.28035 33844 ft 451 kts 303°
2026-05-07 21:53 33.34323 72.21738 33842 ft 452 kts 303°
2026-05-07 21:53 33.37716 72.15467 33839 ft 452 kts 303°
2026-05-07 21:54 33.41125 72.09158 33845 ft 452 kts 303°
2026-05-07 21:54 33.44530 72.02846 33847 ft 451 kts 303°
2026-05-07 21:55 33.47932 71.96526 33846 ft 451 kts 303°
2026-05-07 21:55 33.51288 71.90234 33844 ft 450 kts 300°
2026-05-07 21:56 33.52549 71.86800 33842 ft 452 kts 288°
2026-05-07 21:56 33.53281 71.83130 33854 ft 455 kts 281°
2026-05-07 21:56 33.53555 71.79349 33849 ft 458 kts 270°
2026-05-07 21:56 33.53356 71.75531 33855 ft 459 kts 268°
2026-05-07 21:57 33.52809 71.67905 33844 ft 459 kts 268°
2026-05-07 21:57 33.52318 71.60348 33854 ft 457 kts 268°
2026-05-07 21:58 33.51868 71.52750 33859 ft 457 kts 269°
2026-05-07 21:58 33.51413 71.45158 33861 ft 457 kts 268°
2026-05-07 21:59 33.50944 71.37559 33868 ft 457 kts 268°
2026-05-07 21:59 33.50476 71.30026 33868 ft 456 kts 268°
2026-05-07 22:00 33.49999 71.22458 33882 ft 456 kts 268°
2026-05-07 22:00 33.49517 71.14874 33885 ft 456 kts 268°
2026-05-07 22:01 33.49034 71.07299 33899 ft 455 kts 269°
2026-05-07 22:01 33.49200 71.03559 33892 ft 449 kts 285°
2026-05-07 22:01 33.50206 71.00102 33915 ft 446 kts 297°
2026-05-07 22:02 33.51815 70.96926 33918 ft 446 kts 309°
2026-05-07 22:02 33.53978 70.94295 33931 ft 443 kts 317°
2026-05-07 22:02 33.58575 70.89283 33927 ft 449 kts 317°
2026-05-07 22:03 33.63121 70.84237 33928 ft 447 kts 316°
2026-05-07 22:03 33.67643 70.79143 33942 ft 444 kts 316°
2026-05-07 22:04 33.72133 70.74059 33958 ft 444 kts 316°
2026-05-07 22:04 33.76637 70.68952 33967 ft 446 kts 316°
2026-05-07 22:05 33.81113 70.63872 33961 ft 445 kts 316°
2026-05-07 22:05 33.85607 70.58765 33961 ft 445 kts 316°
2026-05-07 22:06 33.90079 70.53617 33967 ft 445 kts 312°
2026-05-07 22:06 33.93430 70.47369 33971 ft 448 kts 296°
2026-05-07 22:07 33.95258 70.40251 33978 ft 451 kts 284°
2026-05-07 22:07 33.96557 70.32856 33975 ft 451 kts 284°
2026-05-07 22:08 33.97876 70.25477 33970 ft 450 kts 285°
2026-05-07 22:08 33.99223 70.18170 33983 ft 450 kts 285°
2026-05-07 22:09 34.00582 70.10821 33983 ft 449 kts 285°
2026-05-07 22:09 34.01932 70.03479 34001 ft 449 kts 285°
2026-05-07 22:10 34.03278 69.96136 33995 ft 448 kts 285°
2026-05-07 22:10 34.04721 69.88876 34004 ft 448 kts 290°
2026-05-07 22:11 34.07047 69.81937 34008 ft 445 kts 299°
2026-05-07 22:11 34.09974 69.75387 34020 ft 443 kts 300°
2026-05-07 22:12 34.12913 69.68850 34025 ft 443 kts 300°
2026-05-07 22:12 34.15813 69.62336 34038 ft 444 kts 300°
2026-05-07 22:13 34.18719 69.55761 34030 ft 443 kts 300°
2026-05-07 22:13 34.21615 69.49193 34033 ft 443 kts 300°
2026-05-07 22:14 34.24500 69.42641 34031 ft 446 kts 300°
2026-05-07 22:14 34.27401 69.36035 34027 ft 444 kts 300°
2026-05-07 22:15 34.30290 69.29446 34010 ft 443 kts 300°
2026-05-07 22:15 34.33177 69.22850 34021 ft 444 kts 300°
2026-05-07 22:16 34.36066 69.16236 34018 ft 445 kts 300°
2026-05-07 22:16 34.38932 69.09666 34024 ft 444 kts 300°
2026-05-07 22:17 34.42597 69.03758 34034 ft 441 kts 317°
2026-05-07 22:17 34.47508 68.99358 34046 ft 440 kts 331°
2026-05-07 22:18 34.55617 68.94203 34056 ft 440 kts 332°
2026-05-07 22:19 34.61035 68.90746 34070 ft 439 kts 331°
2026-05-07 22:19 34.66428 68.87256 34079 ft 439 kts 331°
2026-05-07 22:20 34.71828 68.83737 34096 ft 442 kts 331°
2026-05-07 22:20 34.77219 68.80217 34110 ft 442 kts 331°
2026-05-07 22:21 34.82628 68.76683 34125 ft 441 kts 331°
2026-05-07 22:21 34.88033 68.73145 34155 ft 441 kts 331°
2026-05-07 22:22 34.93443 68.69599 34170 ft 441 kts 331°
2026-05-07 22:22 34.98816 68.66071 34176 ft 442 kts 331°
2026-05-07 22:23 35.04227 68.62515 34191 ft 442 kts 331°
2026-05-07 22:23 35.09642 68.58949 34197 ft 443 kts 330°
2026-05-07 22:24 35.15035 68.55393 34197 ft 444 kts 331°
2026-05-07 22:24 35.20460 68.51810 34203 ft 442 kts 330°
2026-05-07 22:25 35.25871 68.48231 34188 ft 443 kts 330°
2026-05-07 22:25 35.31291 68.44641 34189 ft 443 kts 330°
2026-05-07 22:26 35.36681 68.41064 34178 ft 444 kts 330°
2026-05-07 22:26 35.42105 68.37459 34161 ft 443 kts 330°
2026-05-07 22:27 35.47523 68.33853 34152 ft 444 kts 330°
2026-05-07 22:27 35.52953 68.30250 34143 ft 444 kts 332°
2026-05-07 22:28 35.58618 68.27205 34137 ft 445 kts 336°
2026-05-07 22:28 35.64304 68.24323 34128 ft 446 kts 336°
2026-05-07 22:29 35.70027 68.21404 34133 ft 445 kts 336°